EXS9KL EGCC-GCTS

Flight info

Callsign EXS9KL
Flight time N/A
Altitude 40000
Route KUXEM P17 BEPHE DCT OSSEP DCT ELNIF DCT ZESPE DCT KLAKI DCT SALCO DCT IBISU DCT BALDA DCT ABUPI DCT XAMAX DCT SRA DCT DEKUS DCT BEXAL UN866 KONBA
Aircraft A332/H-SDE3GHIJ2J3J5M1RVWXY/LB2D1

Departure

Time 2026-05-04 15:53
Airport Manchester Airport (EGCC)

Arrival

Time N/A
Airport Tenerife Sur Airport (GCTS)
Time Latitude Longitude Altitude Speed Heading
2026-05-04 15:02 53.36288 -2.27913 259 ft 0 kts 139°
2026-05-04 15:34 53.36337 -2.27976 259 ft 4 kts 165°
2026-05-04 15:34 53.36362 -2.27977 259 ft 4 kts 207°
2026-05-04 15:34 53.36354 -2.27997 259 ft 4 kts 224°
2026-05-04 15:35 53.36318 -2.28047 259 ft 3 kts 201°
2026-05-04 15:35 53.36314 -2.28049 259 ft 0 kts 199°
2026-05-04 15:40 53.36309 -2.28052 259 ft 2 kts 199°
2026-05-04 15:40 53.36285 -2.28063 259 ft 6 kts 194°
2026-05-04 15:40 53.36236 -2.28070 259 ft 7 kts 173°
2026-05-04 15:41 53.36209 -2.28048 259 ft 5 kts 143°
2026-05-04 15:41 53.36165 -2.27987 259 ft 11 kts 141°
2026-05-04 15:41 53.36099 -2.27900 259 ft 12 kts 141°
2026-05-04 15:41 53.36012 -2.27787 259 ft 13 kts 143°
2026-05-04 15:42 53.35962 -2.27741 259 ft 11 kts 161°
2026-05-04 15:42 53.35863 -2.27730 258 ft 11 kts 182°
2026-05-04 15:42 53.35808 -2.27713 255 ft 11 kts 151°
2026-05-04 15:42 53.35752 -2.27657 254 ft 9 kts 158°
2026-05-04 15:43 53.35682 -2.27602 250 ft 12 kts 146°
2026-05-04 15:43 53.35657 -2.27571 250 ft 0 kts 142°
2026-05-04 15:44 53.35656 -2.27570 250 ft 1 kts 142°
2026-05-04 15:44 53.35638 -2.27546 250 ft 6 kts 142°
2026-05-04 15:45 53.35585 -2.27476 248 ft 14 kts 141°
2026-05-04 15:45 53.35508 -2.27371 252 ft 14 kts 141°
2026-05-04 15:45 53.35425 -2.27260 250 ft 17 kts 141°
2026-05-04 15:45 53.35318 -2.27197 246 ft 17 kts 186°
2026-05-04 15:46 53.35202 -2.27233 237 ft 14 kts 191°
2026-05-04 15:46 53.35165 -2.27246 237 ft 2 kts 191°
2026-05-04 15:47 53.35144 -2.27253 236 ft 7 kts 191°
2026-05-04 15:47 53.35073 -2.27277 232 ft 13 kts 191°
2026-05-04 15:47 53.35000 -2.27340 229 ft 11 kts 228°
2026-05-04 15:47 53.34950 -2.27444 229 ft 12 kts 231°
2026-05-04 15:48 53.34886 -2.27576 225 ft 16 kts 231°
2026-05-04 15:48 53.34815 -2.27722 227 ft 13 kts 231°
2026-05-04 15:48 53.34803 -2.27747 227 ft 0 kts 231°
2026-05-04 15:52 53.34766 -2.27824 226 ft 40 kts 231°
2026-05-04 15:53 53.34407 -2.28570 229 ft 123 kts 231°
2026-05-04 15:53 53.33733 -2.29964 535 ft 177 kts 231°
2026-05-04 15:53 53.32872 -2.31782 1243 ft 222 kts 232°
2026-05-04 15:53 53.32023 -2.34065 2287 ft 237 kts 252°
2026-05-04 15:54 53.31996 -2.36782 3071 ft 239 kts 287°
2026-05-04 15:54 53.32629 -2.39390 3730 ft 246 kts 290°
2026-05-04 15:54 53.32748 -2.42286 4351 ft 258 kts 260°
2026-05-04 15:54 53.32304 -2.45229 5008 ft 263 kts 254°
2026-05-04 15:55 53.31767 -2.48152 5092 ft 263 kts 253°
2026-05-04 15:55 53.31214 -2.51085 5046 ft 264 kts 253°
2026-05-04 15:55 53.30666 -2.54010 5198 ft 265 kts 253°
2026-05-04 15:55 53.30105 -2.56958 5824 ft 268 kts 251°
2026-05-04 15:56 53.29414 -2.59859 6787 ft 269 kts 246°
2026-05-04 15:56 53.28625 -2.62713 7720 ft 272 kts 243°
2026-05-04 15:56 53.27514 -2.65272 8684 ft 276 kts 225°
2026-05-04 15:56 53.26022 -2.67265 9626 ft 279 kts 218°
2026-05-04 15:57 53.24416 -2.69156 10389 ft 288 kts 216°
2026-05-04 15:57 53.22704 -2.71117 10742 ft 310 kts 215°
2026-05-04 15:57 53.20854 -2.73218 11024 ft 333 kts 215°
2026-05-04 15:57 53.18874 -2.75465 11312 ft 354 kts 215°
2026-05-04 15:58 53.16812 -2.77813 11890 ft 364 kts 214°
2026-05-04 15:58 53.14710 -2.80214 12642 ft 368 kts 215°
2026-05-04 15:58 53.12583 -2.82651 13527 ft 371 kts 215°
2026-05-04 15:58 53.10407 -2.84973 14278 ft 375 kts 209°
2026-05-04 15:59 53.07984 -2.86655 14953 ft 380 kts 196°
2026-05-04 15:59 53.05358 -2.87320 15589 ft 386 kts 181°
2026-05-04 15:59 53.02650 -2.87128 16289 ft 390 kts 175°
2026-05-04 15:59 52.99951 -2.86561 16981 ft 393 kts 172°
2026-05-04 16:00 52.97233 -2.85794 17674 ft 397 kts 170°
2026-05-04 16:00 52.94509 -2.84956 18365 ft 399 kts 169°
2026-05-04 16:00 52.91775 -2.84116 18942 ft 403 kts 169°
2026-05-04 16:00 52.88994 -2.83288 19488 ft 406 kts 170°
2026-05-04 16:01 52.86228 -2.82496 20027 ft 410 kts 170°
2026-05-04 16:01 52.83411 -2.81715 20566 ft 413 kts 170°
2026-05-04 16:01 52.80553 -2.80940 21102 ft 417 kts 170°
2026-05-04 16:01 52.77683 -2.80170 21631 ft 420 kts 170°
2026-05-04 16:02 52.74785 -2.79397 22143 ft 423 kts 170°
2026-05-04 16:02 52.71859 -2.78616 22698 ft 426 kts 170°
2026-05-04 16:02 52.65992 -2.77053 23801 ft 430 kts 170°
2026-05-04 16:03 52.63018 -2.76298 24205 ft 434 kts 173°
2026-05-04 16:03 52.59988 -2.76058 24590 ft 438 kts 179°
2026-05-04 16:03 52.56929 -2.76123 24984 ft 442 kts 180°
2026-05-04 16:03 52.53839 -2.76319 25375 ft 446 kts 181°
2026-05-04 16:04 52.50718 -2.76590 25769 ft 450 kts 182°
2026-05-04 16:04 52.44472 -2.77193 26860 ft 449 kts 182°
2026-05-04 16:04 52.41344 -2.77489 27242 ft 452 kts 182°
2026-05-04 16:05 52.38183 -2.77779 27579 ft 456 kts 182°
2026-05-04 16:05 52.35000 -2.78061 27954 ft 460 kts 182°
2026-05-04 16:05 52.28613 -2.78613 28722 ft 466 kts 182°
2026-05-04 16:06 52.25359 -2.78891 29132 ft 470 kts 181°
2026-05-04 16:06 52.16602 -2.79637 30270 ft 473 kts 182°
2026-05-04 16:07 52.12230 -2.80011 30821 ft 473 kts 182°
2026-05-04 16:07 52.02394 -2.80849 32142 ft 471 kts 182°
2026-05-04 16:08 51.99123 -2.81127 32668 ft 468 kts 182°
2026-05-04 16:08 51.89447 -2.81945 34074 ft 463 kts 181°
2026-05-04 16:09 51.83008 -2.82671 34661 ft 464 kts 185°
2026-05-04 16:09 51.76588 -2.84020 35275 ft 465 kts 187°
2026-05-04 16:10 51.70191 -2.85500 35951 ft 463 kts 187°
2026-05-04 16:11 51.60641 -2.87605 36734 ft 465 kts 187°
2026-05-04 16:11 51.57445 -2.88287 37082 ft 463 kts 187°
2026-05-04 16:12 51.47810 -2.90324 37842 ft 465 kts 187°
2026-05-04 16:12 51.38156 -2.92359 38578 ft 466 kts 187°
2026-05-04 16:13 51.31734 -2.93710 38967 ft 467 kts 187°
2026-05-04 16:13 51.25273 -2.95065 39376 ft 466 kts 187°
2026-05-04 16:14 51.18823 -2.96414 39669 ft 469 kts 187°
2026-05-04 16:14 51.12407 -2.97752 40085 ft 467 kts 187°
2026-05-04 16:15 51.02708 -2.99768 40602 ft 468 kts 187°
2026-05-04 16:16 50.96245 -3.01106 40845 ft 470 kts 188°
2026-05-04 16:16 50.86488 -3.03120 40999 ft 471 kts 187°
2026-05-04 16:17 50.79990 -3.04456 40998 ft 470 kts 187°
2026-05-04 16:18 50.67043 -3.07108 40994 ft 470 kts 187°
2026-05-04 16:19 50.50802 -3.10413 40999 ft 471 kts 187°
2026-05-04 16:20 50.34751 -3.14793 40998 ft 470 kts 199°
2026-05-04 16:22 50.19553 -3.24273 40997 ft 470 kts 202°
2026-05-04 16:23 50.01342 -3.35771 40994 ft 471 kts 202°
2026-05-04 16:25 49.83138 -3.47121 40995 ft 470 kts 202°
2026-05-04 16:26 49.61454 -3.58418 40991 ft 469 kts 196°
2026-05-04 16:28 49.45762 -3.65266 40992 ft 470 kts 196°
2026-05-04 16:29 49.23837 -3.74817 40989 ft 468 kts 195°
2026-05-04 16:31 49.08159 -3.81592 40984 ft 468 kts 195°
2026-05-04 16:32 48.90406 -3.89210 40990 ft 468 kts 195°
2026-05-04 16:33 48.77903 -3.94542 40991 ft 468 kts 195°
2026-05-04 16:34 48.68463 -3.98549 40993 ft 469 kts 195°
2026-05-04 16:35 48.49604 -4.06508 40991 ft 468 kts 195°
2026-05-04 16:36 48.40196 -4.10455 40991 ft 468 kts 195°
2026-05-04 16:37 48.30777 -4.14392 40989 ft 469 kts 195°
2026-05-04 16:38 48.18224 -4.19616 40988 ft 469 kts 195°
2026-05-04 16:39 48.02491 -4.26125 40998 ft 469 kts 195°
2026-05-04 16:40 47.89879 -4.31313 40992 ft 470 kts 195°
2026-05-04 16:41 47.74131 -4.37754 40978 ft 469 kts 195°
2026-05-04 16:43 47.58403 -4.44148 40985 ft 469 kts 195°
2026-05-04 16:43 47.48962 -4.47966 40984 ft 469 kts 195°
2026-05-04 16:45 47.30047 -4.55574 40983 ft 469 kts 195°
2026-05-04 16:46 47.14339 -4.61849 40981 ft 469 kts 195°
2026-05-04 16:47 47.01730 -4.66788 40978 ft 468 kts 195°
2026-05-04 16:48 46.89160 -4.71596 40972 ft 468 kts 195°
2026-05-04 16:49 46.76560 -4.76406 40980 ft 467 kts 195°
2026-05-04 16:50 46.63968 -4.81192 40980 ft 467 kts 195°
2026-05-04 16:51 46.54528 -4.84764 40980 ft 467 kts 195°
2026-05-04 16:52 46.41950 -4.89504 40978 ft 469 kts 195°
2026-05-04 16:53 46.32485 -4.93056 40979 ft 469 kts 195°
2026-05-04 16:54 46.19847 -4.97779 40980 ft 468 kts 195°
2026-05-04 16:55 46.00939 -5.04804 40980 ft 468 kts 195°
2026-05-04 16:56 45.85161 -5.10628 40974 ft 468 kts 195°
2026-05-04 16:57 45.75685 -5.14109 40976 ft 469 kts 195°
2026-05-04 16:58 45.63028 -5.18740 40979 ft 469 kts 195°
2026-05-04 17:00 45.44084 -5.25631 40976 ft 469 kts 195°
2026-05-04 17:01 45.28294 -5.31338 40980 ft 468 kts 195°
2026-05-04 17:02 45.15659 -5.35882 40985 ft 468 kts 195°
2026-05-04 17:03 45.06224 -5.39261 40981 ft 469 kts 195°
2026-05-04 17:03 44.96725 -5.42652 40985 ft 469 kts 195°
2026-05-04 17:04 44.84053 -5.47157 40984 ft 469 kts 195°
2026-05-04 17:05 44.71404 -5.51633 40988 ft 468 kts 195°
2026-05-04 17:06 44.61935 -5.55062 40987 ft 467 kts 200°
2026-05-04 17:07 44.53925 -5.59608 40989 ft 466 kts 205°
2026-05-04 17:07 44.46982 -5.63913 41001 ft 466 kts 205°
2026-05-04 17:08 44.38117 -5.69414 41003 ft 466 kts 205°
2026-05-04 17:09 44.32173 -5.73070 40992 ft 467 kts 205°
2026-05-04 17:09 44.26224 -5.76714 40991 ft 467 kts 205°
2026-05-04 17:10 44.11336 -5.85797 41005 ft 467 kts 205°
2026-05-04 17:11 44.05431 -5.89387 41004 ft 467 kts 205°
2026-05-04 17:12 43.96501 -5.94800 41008 ft 466 kts 205°
2026-05-04 17:13 43.81607 -6.03790 41016 ft 466 kts 205°
2026-05-04 17:14 43.69765 -6.10903 41022 ft 466 kts 205°
2026-05-04 17:15 43.60815 -6.16258 41020 ft 467 kts 205°
2026-05-04 17:16 43.48865 -6.23381 41040 ft 467 kts 205°
2026-05-04 17:17 43.36940 -6.30458 41032 ft 466 kts 205°
2026-05-04 17:18 43.25061 -6.37480 41012 ft 466 kts 206°
2026-05-04 17:19 43.13144 -6.44491 41024 ft 465 kts 205°
2026-05-04 17:20 43.01232 -6.51472 41019 ft 467 kts 206°
2026-05-04 17:20 42.92274 -6.56701 41024 ft 466 kts 206°
2026-05-04 17:21 42.80379 -6.63619 41011 ft 466 kts 206°
2026-05-04 17:22 42.75374 -6.66521 41024 ft 466 kts 206°
2026-05-04 17:23 42.63488 -6.73394 41023 ft 465 kts 206°
2026-05-04 17:24 42.54552 -6.78543 41021 ft 465 kts 206°
2026-05-04 17:25 42.42606 -6.85399 41035 ft 466 kts 206°
2026-05-04 17:26 42.30658 -6.92228 41038 ft 465 kts 206°
2026-05-04 17:27 42.15773 -7.00698 41032 ft 465 kts 206°
2026-05-04 17:28 42.03888 -7.07427 41024 ft 464 kts 206°
2026-05-04 17:29 41.86037 -7.17487 41017 ft 462 kts 206°
2026-05-04 17:31 41.71599 -7.26714 41018 ft 459 kts 214°
2026-05-04 17:32 41.57929 -7.37662 41021 ft 458 kts 214°
2026-05-04 17:33 41.46988 -7.46372 41025 ft 457 kts 214°
2026-05-04 17:34 41.36050 -7.55030 41027 ft 457 kts 214°
2026-05-04 17:35 41.22422 -7.65774 41041 ft 456 kts 214°
2026-05-04 17:36 41.16949 -7.70074 41042 ft 457 kts 214°
2026-05-04 17:36 41.11479 -7.74362 41043 ft 456 kts 214°
2026-05-04 17:37 41.06016 -7.78637 41035 ft 456 kts 214°
2026-05-04 17:37 41.00543 -7.82910 41046 ft 455 kts 214°
2026-05-04 17:38 40.95096 -7.87156 41044 ft 455 kts 214°
2026-05-04 17:38 40.89624 -7.91415 41054 ft 455 kts 214°
2026-05-04 17:39 40.81476 -7.97739 41054 ft 454 kts 214°
2026-05-04 17:39 40.76018 -8.01963 41054 ft 454 kts 214°
2026-05-04 17:40 40.70559 -8.06182 41065 ft 454 kts 214°
2026-05-04 17:40 40.65106 -8.10388 41063 ft 454 kts 215°
2026-05-04 17:41 40.59664 -8.14578 41060 ft 453 kts 215°
2026-05-04 17:41 40.54241 -8.18744 41065 ft 452 kts 215°
2026-05-04 17:42 40.48806 -8.22911 41076 ft 453 kts 215°
2026-05-04 17:42 40.43362 -8.27079 41071 ft 452 kts 215°
2026-05-04 17:43 40.37922 -8.31235 41073 ft 452 kts 214°
2026-05-04 17:43 40.32491 -8.35377 41079 ft 452 kts 215°
2026-05-04 17:44 40.27041 -8.39525 41079 ft 453 kts 215°
2026-05-04 17:44 40.21584 -8.43671 41082 ft 453 kts 215°
2026-05-04 17:45 40.16130 -8.47806 41066 ft 453 kts 215°
2026-05-04 17:45 40.10673 -8.51935 41085 ft 453 kts 215°
2026-05-04 17:46 40.05231 -8.56046 41077 ft 452 kts 215°
2026-05-04 17:46 39.99779 -8.60157 41085 ft 452 kts 215°
2026-05-04 17:47 39.94355 -8.64239 41084 ft 452 kts 215°
2026-05-04 17:47 39.88903 -8.68334 41089 ft 452 kts 215°
2026-05-04 17:48 39.83454 -8.72419 41103 ft 451 kts 215°
2026-05-04 17:48 39.78002 -8.76501 41104 ft 452 kts 215°
2026-05-04 17:49 39.72549 -8.80575 41100 ft 453 kts 215°
2026-05-04 17:49 39.67126 -8.84619 41091 ft 452 kts 215°
2026-05-04 17:50 39.61672 -8.88676 41100 ft 450 kts 215°
2026-05-04 17:50 39.56234 -8.92716 41094 ft 450 kts 215°
2026-05-04 17:51 39.50798 -8.96748 41100 ft 450 kts 215°
2026-05-04 17:51 39.45353 -9.00780 41076 ft 450 kts 215°
2026-05-04 17:52 39.39956 -9.04767 41091 ft 448 kts 215°
2026-05-04 17:52 39.34535 -9.08764 41090 ft 447 kts 215°
2026-05-04 17:53 39.29122 -9.12749 41110 ft 447 kts 215°
2026-05-04 17:53 39.23710 -9.16728 41095 ft 447 kts 215°
2026-05-04 17:54 39.18344 -9.20665 41094 ft 446 kts 215°
2026-05-04 17:54 39.12914 -9.24640 41100 ft 445 kts 215°
2026-05-04 17:55 39.07562 -9.28553 41107 ft 445 kts 215°
2026-05-04 17:55 39.02172 -9.32486 41102 ft 445 kts 215°
2026-05-04 17:56 38.96777 -9.36417 41084 ft 445 kts 215°
2026-05-04 17:56 38.91385 -9.40337 41112 ft 445 kts 215°
2026-05-04 17:57 38.86003 -9.44243 41112 ft 444 kts 215°
2026-05-04 17:57 38.80644 -9.48126 41110 ft 444 kts 215°
2026-05-04 17:58 38.75262 -9.52020 41110 ft 444 kts 215°
2026-05-04 17:58 38.69871 -9.55914 41112 ft 444 kts 215°
2026-05-04 17:59 38.64484 -9.59796 41113 ft 444 kts 215°
2026-05-04 18:00 38.56400 -9.65611 41110 ft 444 kts 215°
2026-05-04 18:00 38.51021 -9.69472 41121 ft 444 kts 215°
2026-05-04 18:01 38.45628 -9.73336 41118 ft 443 kts 215°
2026-05-04 18:01 38.40250 -9.77182 41119 ft 443 kts 215°
2026-05-04 18:02 38.32219 -9.82915 41117 ft 443 kts 215°
2026-05-04 18:02 38.26841 -9.86745 41125 ft 443 kts 215°
2026-05-04 18:03 38.21468 -9.90565 41118 ft 442 kts 215°
2026-05-04 18:03 38.16088 -9.94383 41118 ft 442 kts 215°
2026-05-04 18:04 38.10728 -9.98181 41135 ft 441 kts 215°
2026-05-04 18:05 38.02717 -10.03845 41136 ft 441 kts 214°
2026-05-04 18:05 37.97339 -10.07639 41119 ft 441 kts 214°
2026-05-04 18:06 37.89280 -10.13313 41123 ft 441 kts 214°
2026-05-04 18:06 37.83908 -10.17087 41135 ft 441 kts 214°
2026-05-04 18:07 37.78574 -10.20828 41125 ft 441 kts 214°
2026-05-04 18:07 37.73200 -10.24591 41115 ft 441 kts 214°
2026-05-04 18:08 37.67831 -10.28343 41135 ft 440 kts 214°
2026-05-04 18:08 37.62468 -10.32086 41135 ft 440 kts 214°
2026-05-04 18:09 37.51756 -10.39544 41135 ft 440 kts 214°
2026-05-04 18:10 37.46432 -10.43240 41132 ft 439 kts 214°
2026-05-04 18:10 37.41085 -10.46947 41140 ft 438 kts 214°
2026-05-04 18:11 37.35754 -10.50636 41140 ft 438 kts 214°
2026-05-04 18:11 37.30398 -10.54338 41137 ft 438 kts 214°
2026-05-04 18:12 37.25055 -10.58025 41131 ft 438 kts 214°
2026-05-04 18:12 37.19757 -10.61673 41139 ft 437 kts 214°
2026-05-04 18:13 37.14426 -10.65338 41141 ft 436 kts 214°
2026-05-04 18:14 37.06437 -10.70821 41140 ft 436 kts 214°
2026-05-04 18:14 37.01116 -10.74466 41143 ft 436 kts 214°
2026-05-04 18:15 36.91370 -10.81123 41141 ft 434 kts 214°
2026-05-04 18:16 36.86075 -10.84733 41146 ft 433 kts 214°
2026-05-04 18:16 36.80815 -10.88314 41148 ft 433 kts 214°
2026-05-04 18:17 36.72880 -10.93706 41123 ft 433 kts 214°
2026-05-04 18:18 36.64931 -10.99093 41143 ft 433 kts 214°
2026-05-04 18:18 36.59640 -11.02672 41149 ft 433 kts 214°
2026-05-04 18:19 36.51693 -11.08038 41146 ft 433 kts 214°
2026-05-04 18:19 36.46433 -11.11582 41127 ft 433 kts 214°
2026-05-04 18:20 36.41133 -11.15147 41146 ft 432 kts 214°
2026-05-04 18:20 36.35836 -11.18704 41149 ft 432 kts 214°
2026-05-04 18:21 36.32332 -11.21055 41149 ft 432 kts 214°
2026-05-04 18:21 36.25366 -11.25721 41149 ft 432 kts 214°
2026-05-04 18:22 36.20072 -11.29261 41128 ft 432 kts 214°
2026-05-04 18:22 36.14783 -11.32791 41147 ft 431 kts 214°
2026-05-04 18:23 36.09508 -11.36307 41149 ft 431 kts 214°
2026-05-04 18:23 36.04217 -11.39828 41150 ft 431 kts 214°
2026-05-04 18:24 35.98932 -11.43340 41146 ft 431 kts 214°
2026-05-04 18:24 35.93938 -11.47259 41131 ft 426 kts 219°
2026-05-04 18:25 35.89096 -11.51457 41145 ft 424 kts 220°
2026-05-04 18:25 35.84296 -11.55692 41146 ft 424 kts 220°
2026-05-04 18:26 35.79490 -11.59926 41146 ft 424 kts 220°
2026-05-04 18:26 35.74682 -11.64142 41149 ft 424 kts 220°
2026-05-04 18:27 35.69875 -11.68345 41147 ft 424 kts 220°
2026-05-04 18:27 35.65055 -11.72549 41141 ft 423 kts 220°
2026-05-04 18:28 35.60251 -11.76735 41146 ft 422 kts 220°
2026-05-04 18:28 35.55466 -11.80898 41143 ft 422 kts 220°
2026-05-04 18:29 35.50673 -11.85063 41144 ft 422 kts 220°
2026-05-04 18:29 35.45419 -11.89622 41147 ft 422 kts 220°
2026-05-04 18:30 35.38255 -11.95824 41150 ft 422 kts 220°
2026-05-04 18:31 35.33448 -11.99979 41149 ft 422 kts 220°
2026-05-04 18:31 35.28648 -12.04121 41149 ft 422 kts 220°
2026-05-04 18:32 35.23881 -12.08228 41142 ft 422 kts 220°
2026-05-04 18:32 35.19038 -12.12395 41164 ft 422 kts 220°
2026-05-04 18:33 35.14231 -12.16525 41147 ft 422 kts 219°
2026-05-04 18:33 35.09420 -12.20652 41148 ft 422 kts 219°
2026-05-04 18:34 35.04641 -12.24746 41153 ft 422 kts 219°
2026-05-04 18:34 34.99843 -12.28850 41150 ft 422 kts 219°
2026-05-04 18:35 34.95028 -12.32962 41149 ft 422 kts 219°
2026-05-04 18:35 34.90244 -12.37042 41151 ft 422 kts 219°
2026-05-04 18:36 34.85425 -12.41146 41133 ft 422 kts 219°
2026-05-04 18:36 34.80612 -12.45240 41151 ft 423 kts 219°
2026-05-04 18:37 34.75775 -12.49348 41154 ft 423 kts 219°
2026-05-04 18:37 34.70967 -12.53425 41151 ft 423 kts 219°
2026-05-04 18:38 34.66125 -12.57524 41151 ft 424 kts 219°
2026-05-04 18:38 34.61284 -12.61616 41151 ft 424 kts 219°
2026-05-04 18:39 34.56441 -12.65705 41149 ft 424 kts 219°
2026-05-04 18:39 34.51601 -12.69785 41147 ft 424 kts 219°
2026-05-04 18:40 34.46746 -12.73872 41148 ft 424 kts 219°
2026-05-04 18:40 34.41900 -12.77946 41149 ft 424 kts 219°
2026-05-04 18:41 34.37074 -12.81997 41153 ft 424 kts 219°
2026-05-04 18:41 34.32214 -12.86071 41152 ft 424 kts 219°
2026-05-04 18:42 34.28175 -12.89451 41142 ft 424 kts 219°
2026-05-04 18:42 34.23333 -12.93514 41146 ft 423 kts 219°
2026-05-04 18:43 34.18503 -12.97591 41143 ft 423 kts 219°
2026-05-04 18:43 34.13684 -13.01657 41146 ft 423 kts 219°
2026-05-04 18:44 34.08857 -13.05721 41148 ft 423 kts 219°
2026-05-04 18:44 34.04021 -13.09784 41147 ft 423 kts 219°
2026-05-04 18:45 33.99188 -13.13839 41151 ft 423 kts 219°
2026-05-04 18:45 33.94362 -13.17882 41145 ft 423 kts 219°
2026-05-04 18:46 33.89560 -13.21901 41144 ft 423 kts 219°
2026-05-04 18:46 33.84723 -13.25942 41144 ft 423 kts 219°
2026-05-04 18:47 33.79878 -13.29983 41140 ft 423 kts 219°
2026-05-04 18:47 33.74998 -13.34054 41142 ft 431 kts 219°
2026-05-04 18:48 33.70023 -13.38195 41142 ft 434 kts 219°
2026-05-04 18:48 33.65096 -13.42284 41141 ft 433 kts 219°
2026-05-04 18:49 33.60133 -13.46399 41140 ft 433 kts 219°
2026-05-04 18:49 33.55172 -13.50508 41144 ft 433 kts 219°
2026-05-04 18:50 33.50215 -13.54609 41137 ft 433 kts 219°
2026-05-04 18:50 33.45290 -13.58678 41122 ft 433 kts 218°
2026-05-04 18:51 33.40327 -13.62771 41138 ft 432 kts 218°
2026-05-04 18:51 33.35384 -13.66842 41135 ft 431 kts 218°
2026-05-04 18:52 33.30438 -13.70911 41135 ft 431 kts 218°
2026-05-04 18:52 33.25495 -13.74972 41135 ft 431 kts 218°
2026-05-04 18:53 33.20549 -13.79030 41129 ft 431 kts 218°
2026-05-04 18:53 33.15610 -13.83075 41132 ft 431 kts 218°
2026-05-04 18:54 33.10662 -13.87096 41130 ft 430 kts 218°
2026-05-04 18:54 33.05751 -13.91079 41130 ft 429 kts 218°
2026-05-04 18:55 33.00813 -13.95079 41127 ft 429 kts 218°
2026-05-04 18:55 32.93389 -14.01084 41124 ft 429 kts 218°
2026-05-04 18:56 32.88442 -14.05079 41113 ft 429 kts 218°
2026-05-04 18:56 32.83492 -14.09070 41122 ft 428 kts 218°
2026-05-04 18:57 32.78565 -14.13038 41122 ft 428 kts 218°
2026-05-04 18:57 32.73667 -14.16977 41121 ft 428 kts 218°
2026-05-04 18:58 32.68730 -14.20943 41121 ft 428 kts 218°
2026-05-04 18:58 32.63795 -14.24901 41116 ft 428 kts 218°
2026-05-04 18:59 32.58858 -14.28855 41116 ft 428 kts 218°
2026-05-04 18:59 32.53921 -14.32805 41116 ft 428 kts 218°
2026-05-04 19:00 32.48979 -14.36752 41113 ft 428 kts 218°
2026-05-04 19:00 32.44037 -14.40695 41113 ft 428 kts 218°
2026-05-04 19:01 32.39111 -14.44618 41113 ft 428 kts 218°
2026-05-04 19:01 32.34176 -14.48545 41113 ft 428 kts 218°
2026-05-04 19:02 32.29230 -14.52475 41104 ft 428 kts 218°
2026-05-04 19:02 32.24292 -14.56392 41111 ft 426 kts 218°
2026-05-04 19:03 32.19366 -14.60296 41111 ft 426 kts 218°
2026-05-04 19:03 32.14430 -14.64202 41110 ft 427 kts 218°
2026-05-04 19:04 32.09525 -14.68079 41108 ft 427 kts 218°
2026-05-04 19:04 32.04578 -14.71983 41108 ft 427 kts 218°
2026-05-04 19:05 31.99646 -14.75871 41104 ft 426 kts 217°
2026-05-04 19:05 31.94714 -14.79753 41102 ft 425 kts 217°
2026-05-04 19:06 31.89795 -14.83621 41102 ft 425 kts 217°
2026-05-04 19:06 31.84869 -14.87489 41105 ft 425 kts 217°
2026-05-04 19:07 31.79955 -14.91342 41105 ft 425 kts 217°
2026-05-04 19:07 31.75073 -14.95165 41104 ft 425 kts 217°
2026-05-04 19:08 31.70136 -14.99026 41103 ft 425 kts 217°
2026-05-04 19:08 31.65228 -15.02859 41104 ft 423 kts 217°
2026-05-04 19:09 31.60310 -15.06696 41103 ft 423 kts 217°